This demonstration page uses our WeatherBlox Daily Observations layout. Learn more.

Left ArrowRight Arrow

Hourly Observations for May 2, 2020

Temp ( °F °C ) Dew Point ( °F °C ) Humidity (%) Winds ( mph kmh ) Pressure ( in mb ) Visibility ( mi km ) Precip ( " mm )
12:51 am 00:51 Clear 76 24.4 15 -9.4 10 10 NNW 10 17 29.8 1009 10 16.0934 0 0
1:51 am 01:51 Clear 67 19.4 18 -7.8 15 15 ESE 5 7 29.81 1010 10 16.0934 0 0
2:51 am 02:51 Clear 62 16.7 16 -8.9 17 17 ESE 6 9 29.81 1010 10 16.0934 0 0
3:51 am 03:51 Clear 62 16.7 17 -8.3 17 17 ESE 6 9 29.83 1010 10 16.0934 0 0
4:51 am 04:51 Clear 61 16.1 17 -8.3 18 18 ENE 5 7 29.85 1011 10 16.0934 0 0
5:51 am 05:51 Sunny 59 15 19 -7.2 21 21 ESE 3 6 29.88 1012 10 16.0934 0 0
6:51 am 06:51 Sunny 71 21.7 22 -5.6 16 16 ESE 5 7 29.88 1012 10 16.0934 0 0
7:51 am 07:51 Sunny 79 26.1 23 -5 12 12 ESE 9 15 29.88 1012 10 16.0934 0 0
8:51 am 08:51 Sunny 82 27.8 27 -2.8 13 13 ESE 10 17 29.89 1012 10 16.0934 0 0
9:51 am 09:51 Sunny 86 30 29 -1.7 13 13 E 5 7 29.88 1012 10 16.0934 0 0
10:51 am 10:51 Sunny 88 31.1 38 3.3 17 17 undefined N/A 29.87 1012 10 16.0934 0 0
11:51 am 11:51 Sunny 89 31.7 34 1.1 14 14 SSW 5 7 29.85 1011 10 16.0934 0 0
12:51 pm 12:51 Sunny 92 33.3 34 1.1 13 13 VRB 3 6 29.82 1010 10 16.0934 0 0
1:51 pm 13:51 Sunny 94 34.4 33 0.6 12 12 undefined N/A 29.8 1009 10 16.0934 0 0
2:51 pm 14:51 Sunny 95 35 31 -0.6 10 10 VRB 3 6 29.78 1008 10 16.0934 0 0
3:51 pm 15:51 Sunny 98 36.7 27 -2.8 8 8 W 20 31 29.75 1007 10 16.0934 0 0
4:51 pm 16:51 Sunny 96 35.6 26 -3.3 8 8 W 20 31 29.75 1007 10 16.0934 0 0
5:51 pm 17:51 Sunny 94 34.4 30 -1.1 10 10 WNW 17 28 29.75 1008 10 16.0934 0 0
6:51 pm 18:51 Mostly Sunny 90 32.2 29 -1.7 11 11 NW 14 22 29.75 1008 10 16.0934 0 0
7:51 pm 19:51 Clear 86 30 28 -2.2 12 12 NW 13 20 29.77 1008 10 16.0934 0 0
8:51 pm 20:51 Clear 81 27.2 29 -1.7 15 15 W 12 19 29.8 1009 10 16.0934 0 0
9:51 pm 21:51 Clear 80 26.7 30 -1.1 16 16 WNW 10 17 29.83 1010 10 16.0934 0 0
10:51 pm 22:51 Clear 75 23.9 29 -1.7 18 18 NW 12 19 29.83 1010 10 16.0934 0 0
11:51 pm 23:51 Clear 76 24.4 28 -2.2 17 17 NW 13 20 29.84 1011 10 16.0934 0 0

Powered by AerisWeather